Date,TemperatureHighF,TemperatureAvgF,TemperatureLowF,DewpointHighF,DewpointAvgF,DewpointLowF,HumidityHigh,HumidityAvg,HumidityLow,PressureMaxIn,PressureMinIn,WindSpeedMaxMPH,WindSpeedAvgMPH,GustSpeedMaxMPH,PrecipitationSumIn
2013-1-1,32.0,31.2,30.3,30.7,29.8,29.0,95,95,94,30.48,30.34,0,0,1,0.00
2013-1-2,30.8,3.4,29.3,29.3,-85.1,-99.9,94,11,93,30.34,30.16,0,-884,1,0.00
2013-1-3,-200.0,0.0,200.0,-99.9,-99.9,-99.9,0,0,100,30.16,30.05,0,-999,0,0.00
2013-1-4,-200.0,0.0,200.0,-99.9,-99.9,-99.9,0,0,100,30.28,30.11,0,-999,0,0.00
2013-1-5,-200.0,0.0,200.0,-99.9,-99.9,-99.9,0,0,100,30.17,30.07,0,-999,0,0.00
2013-1-6,-200.0,0.0,200.0,-99.9,-99.9,-99.9,0,0,100,30.15,29.96,0,-999,0,0.00
2013-1-7,-200.0,0.0,200.0,-99.9,-99.9,-99.9,0,0,100,30.13,29.79,0,-999,0,0.00
2013-1-8,-200.0,0.0,200.0,-99.9,-99.9,-99.9,0,0,100,30.13,29.71,0,-999,0,0.00
2013-1-9,-200.0,0.0,200.0,-99.9,-99.9,-99.9,0,0,100,29.91,29.64,0,-999,0,0.00
2013-1-10,-200.0,0.0,200.0,-99.9,-99.9,-99.9,0,0,100,30.07,29.90,0,-999,0,0.00
2013-1-11,33.6,7.6,25.6,32.3,-65.7,-99.9,95,25,92,30.32,30.06,0,-728,0,0.00
2013-1-12,30.8,26.0,23.0,29.0,23.9,20.8,94,91,87,30.43,30.30,1,0,2,0.00
2013-1-13,31.4,24.3,20.2,28.5,22.0,17.5,94,91,88,30.48,30.43,0,0,0,0.00
2013-1-14,33.2,33.2,33.2,31.9,31.9,31.9,95,95,95,30.50,30.50,0,0,0,0.00
2013-1-16,37.1,18.1,31.8,34.7,-31.1,-99.9,93,48,90,30.57,30.50,1,-481,1,0.01
2013-1-17,40.1,12.4,29.8,38.5,-50.6,-99.9,94,35,90,30.51,30.28,1,-622,2,0.01
2013-1-18,32.7,13.0,25.0,31.4,-40.8,-99.9,95,44,91,30.33,30.25,1,-529,1,0.00
2013-1-19,39.0,8.2,27.8,37.7,-64.6,-99.9,95,26,94,30.36,30.29,0,-724,0,0.00
2013-1-20,37.4,28.2,22.3,34.5,26.3,19.8,95,92,88,30.38,30.25,1,0,1,0.00
2013-1-21,34.8,27.0,20.5,31.7,25.0,17.7,94,92,88,30.25,30.12,1,0,2,0.00
2013-1-22,37.1,29.8,22.7,35.8,28.0,20.2,95,93,90,30.15,29.88,0,0,1,0.02
2013-1-23,40.8,37.4,33.4,39.2,35.3,31.3,95,92,79,30.11,29.82,6,0,16,0.63
2013-1-24,42.4,38.6,34.9,41.1,37.3,33.6,96,95,91,30.20,30.03,7,0,7,0.39
2013-1-25,43.4,10.6,33.4,42.3,-63.3,-99.9,96,25,94,30.04,29.90,4,-736,4,0.04
2013-1-26,39.0,36.2,32.9,38.0,35.1,31.4,96,96,94,30.01,29.86,4,0,4,1.23
2013-1-27,39.8,37.0,34.2,38.8,36.0,33.2,96,96,96,30.03,29.97,4,0,4,0.96
2013-1-28,36.3,34.0,33.0,35.3,33.0,32.0,96,96,96,30.07,29.98,1,0,1,1.98
2013-1-29,40.4,29.7,34.2,39.6,8.2,-99.9,97,76,96,30.32,30.07,0,-209,1,1.31
2013-1-30,45.9,0.5,45.6,45.1,-98.5,-99.9,97,1,97,30.34,30.30,0,-988,0,0.00
2013-1-31,45.0,43.9,42.7,44.2,43.1,41.9,97,97,97,30.31,30.28,2,0,4,0.29
2013-2-1,46.9,42.1,34.2,45.9,41.1,32.9,97,96,94,30.38,30.31,1,0,2,0.11
2013-2-2,46.2,36.9,30.9,41.9,35.3,29.6,97,94,84,30.37,30.24,2,0,4,0.00
2013-2-3,45.3,40.6,33.2,44.3,39.4,31.9,97,95,93,30.28,30.14,2,0,2,0.36
2013-2-4,46.6,43.3,41.3,44.9,41.9,40.2,96,95,90,30.14,29.81,1,0,2,0.01
2013-2-5,46.2,42.9,42.1,44.1,38.6,-99.9,95,90,87,29.86,29.77,5,-23,6,0.24
2013-2-6,-200.0,0.0,200.0,-99.9,-99.9,-99.9,0,0,100,29.97,29.70,0,-999,0,0.00
2013-2-7,-200.0,0.0,200.0,-99.9,-99.9,-99.9,0,0,100,30.10,29.72,0,-999,0,0.00
2013-2-8,38.5,3.9,36.5,35.8,-85.8,-99.9,92,10,89,30.21,30.10,0,-895,0,0.00
2013-2-9,41.1,38.4,36.4,39.8,36.8,34.4,95,94,92,30.27,30.19,2,0,2,0.04
2013-2-10,42.8,37.7,31.1,39.0,35.3,29.6,95,91,82,30.30,30.25,2,0,5,0.00
2013-2-11,42.0,39.1,36.1,39.9,37.5,34.0,95,94,91,30.29,30.25,2,0,2,0.07
2013-2-12,46.6,43.5,39.8,44.6,41.8,38.5,96,94,87,30.33,30.21,4,0,5,0.02
2013-2-13,46.5,43.4,40.7,44.0,41.7,39.4,96,94,88,30.42,30.23,4,0,4,0.20
2013-2-14,47.9,43.6,40.3,44.1,41.5,39.0,96,92,81,30.49,30.42,4,0,5,0.15
2013-2-15,53.7,42.3,32.7,45.2,38.4,30.9,96,87,68,30.48,30.11,2,0,5,0.00
2013-2-16,45.1,41.4,35.1,44.0,40.1,33.0,96,95,92,30.21,30.06,2,0,5,1.04
2013-2-17,41.1,38.1,33.3,40.0,36.9,32.0,96,95,94,30.26,30.13,4,0,4,0.28
2013-2-18,43.0,36.4,32.0,39.7,34.2,30.7,96,92,77,30.12,29.77,5,0,5,0.00
2013-2-19,47.2,38.3,31.7,36.4,33.2,29.4,95,83,57,30.00,29.75,8,0,8,0.00
2013-2-20,43.0,36.7,32.0,38.1,34.3,29.9,95,91,75,30.05,30.00,5,0,6,0.03
2013-2-21,39.8,38.2,35.7,38.8,37.0,34.1,96,95,94,30.07,30.01,5,0,6,0.38
2013-2-22,42.7,38.6,33.0,41.0,37.1,31.5,97,95,86,30.05,29.68,10,0,12,0.63
2013-2-23,42.7,36.8,33.9,41.5,35.5,32.6,96,95,93,30.37,29.89,1,0,1,0.85
2013-2-24,43.4,39.8,34.6,38.4,36.4,33.3,95,88,77,30.38,29.97,9,0,10,0.05
2013-2-25,45.7,41.1,38.7,42.7,36.9,30.0,96,86,57,30.30,29.90,7,0,7,0.24
2013-2-26,38.7,8.8,32.0,35.0,-66.5,-99.9,92,23,87,30.35,30.18,0,-746,0,0.00
2013-2-27,39.6,0.1,39.6,38.3,-99.7,-99.9,95,0,95,30.29,30.19,0,-996,0,0.00
2013-2-28,50.0,44.0,39.3,49.2,42.9,38.0,97,96,95,30.31,30.19,7,0,8,0.64
2013-3-1,55.3,52.8,50.0,49.8,48.6,46.1,97,86,78,30.35,30.28,10,1,10,0.01
2013-3-2,54.7,48.1,37.5,47.0,43.0,36.1,95,83,71,30.28,30.06,9,0,13,0.58
2013-3-3,41.3,36.9,31.7,39.5,35.5,30.2,96,95,84,30.32,30.18,3,0,4,0.21
2013-3-4,49.4,37.8,28.7,38.0,30.1,26.0,95,76,43,30.31,29.95,9,0,11,0.00
2013-3-5,53.3,44.0,36.8,38.2,32.9,25.9,85,66,40,29.95,29.73,6,0,6,0.00
2013-3-6,42.3,38.8,35.1,41.0,37.0,32.5,95,93,85,29.90,29.58,1,0,4,0.60
2013-3-7,45.9,39.7,33.0,44.1,38.1,31.2,96,94,90,30.10,29.91,2,0,2,0.40
2013-3-8,49.3,38.4,30.5,41.0,34.3,29.0,96,86,66,30.25,30.08,5,0,5,0.00
2013-3-9,51.8,39.6,30.2,40.1,34.1,28.2,95,82,59,30.50,30.25,7,0,9,0.00
2013-3-10,47.0,40.6,33.6,41.4,36.8,31.1,94,86,68,30.50,30.43,5,0,6,0.01
2013-3-11,53.0,44.4,33.9,43.6,38.5,31.6,95,81,51,30.44,30.17,7,0,8,0.01
2013-3-12,49.9,48.8,45.6,48.3,46.9,42.0,96,93,86,30.17,30.06,5,0,6,1.11
2013-3-13,51.8,50.2,49.0,50.4,49.0,47.9,96,96,94,30.20,30.09,5,0,6,0.52
2013-3-14,52.7,49.2,46.5,51.9,47.7,44.1,97,95,90,30.15,30.03,7,0,7,0.06
2013-3-15,56.5,50.5,46.5,50.8,47.6,44.9,96,90,71,30.21,30.13,5,0,10,0.02
2013-3-16,49.1,43.5,35.8,46.3,40.8,34.2,95,90,76,30.13,29.88,8,0,10,0.50
2013-3-17,44.1,38.8,34.2,40.4,36.5,32.4,96,91,71,30.19,29.97,6,0,6,0.21
2013-3-18,46.7,39.8,33.9,39.7,34.6,28.6,96,83,50,30.26,30.11,8,0,8,0.19
2013-3-19,53.1,40.6,31.7,41.2,33.5,26.9,95,79,37,30.25,29.61,11,0,11,0.16
2013-3-20,50.4,43.6,33.9,47.1,41.2,32.4,96,92,70,30.01,29.40,12,1,22,1.78
2013-3-21,40.4,36.9,33.9,39.1,35.1,32.6,96,93,83,30.20,30.01,5,0,8,0.22
2013-3-22,40.7,35.0,30.9,36.7,32.6,28.9,95,91,74,30.39,30.20,6,0,7,0.30
2013-3-23,46.6,36.3,30.0,34.1,30.1,25.8,95,80,45,30.41,30.31,5,0,5,0.00
2013-3-24,53.3,39.2,29.5,35.8,30.1,25.4,94,73,34,30.31,30.14,7,0,9,0.00
2013-3-25,59.7,22.4,30.9,36.7,-40.2,-99.9,90,25,28,30.15,29.93,6,-538,6,0.00
2013-3-26,59.7,16.6,53.3,41.1,-60.4,-99.9,59,14,42,30.00,29.95,5,-711,9,0.00
2013-3-27,51.5,5.4,43.4,44.2,-83.8,-99.9,83,9,76,30.00,29.92,0,-885,0,0.00
2013-3-28,59.8,48.8,37.8,48.2,42.1,35.3,94,79,54,30.15,30.00,2,0,5,0.05
2013-3-29,62.0,49.4,37.5,48.1,41.9,35.4,95,77,48,30.25,30.15,2,0,5,0.01
2013-3-30,65.5,50.4,35.1,47.5,40.7,32.5,94,72,40,30.26,30.09,2,0,6,0.00
2013-3-31,69.3,53.4,36.0,48.0,41.3,33.4,94,67,33,30.08,29.91,1,0,5,0.00
2013-4-1,61.2,51.2,39.1,49.2,44.0,36.0,92,77,63,30.15,29.97,2,0,6,0.00
2013-4-2,53.1,50.5,48.2,48.1,46.5,44.8,93,86,80,30.21,30.15,1,0,3,0.02
2013-4-3,61.8,52.4,45.4,47.1,45.0,43.2,93,77,54,30.19,29.95,1,0,3,0.00
2013-4-4,55.5,51.2,46.3,53.8,48.4,42.8,95,90,77,29.95,29.65,0,0,3,0.45
2013-4-5,55.3,50.9,47.2,50.8,48.4,45.3,95,91,78,29.87,29.73,2,0,4,0.61
2013-4-6,50.1,46.8,43.7,46.0,43.2,38.8,95,88,80,29.93,29.70,2,0,5,0.27
2013-4-7,43.6,41.4,38.8,42.3,39.8,37.2,95,94,84,29.89,29.50,1,0,5,1.61
2013-4-8,50.0,44.0,40.8,46.6,42.0,39.5,96,93,82,30.27,29.89,0,0,1,0.31
2013-4-9,53.7,47.8,42.1,45.7,42.7,40.5,95,83,67,30.35,30.19,2,0,5,0.00
2013-4-10,50.7,48.9,45.7,48.7,45.0,40.1,94,87,73,30.25,29.91,2,0,6,0.36
2013-4-11,50.6,45.2,37.0,42.8,40.3,34.3,95,83,61,30.30,30.20,1,0,2,0.47
2013-4-12,47.6,39.7,34.3,40.5,36.9,31.9,95,90,67,30.20,29.69,2,0,5,0.63
2013-4-13,44.0,38.8,35.8,42.7,37.4,34.2,95,95,92,30.00,29.74,1,0,5,0.68
2013-4-14,48.8,40.7,36.8,42.0,37.8,35.5,95,90,65,30.02,29.92,1,0,3,0.18
2013-4-15,51.9,43.1,35.5,41.3,38.5,33.4,94,85,60,30.18,29.95,2,0,5,0.18
2013-4-16,53.3,41.9,31.4,44.2,36.5,29.9,95,83,47,30.40,30.19,1,0,5,0.08
2013-4-17,58.1,45.5,33.2,43.5,36.2,31.4,95,73,39,30.46,30.40,2,0,7,0.00
2013-4-18,48.8,45.7,42.7,45.5,41.8,38.0,95,86,73,30.46,30.23,1,0,4,0.47
2013-4-19,52.7,48.9,46.7,51.3,47.6,45.3,96,95,94,30.22,30.07,1,0,4,1.46
2013-4-20,50.7,47.0,45.3,49.3,45.4,44.0,96,94,86,30.28,30.19,1,0,2,0.99
2013-4-21,48.1,44.2,37.1,45.2,42.2,35.0,95,93,80,30.37,30.24,1,0,4,0.62
2013-4-22,58.0,44.5,31.8,42.9,34.9,30.3,95,73,37,30.53,30.38,2,0,4,0.00
2013-4-23,60.4,46.5,32.7,41.8,35.2,27.7,95,69,29,30.44,30.25,3,0,6,0.00
2013-4-24,66.9,51.1,34.2,42.0,35.8,27.3,94,62,24,30.33,30.08,2,0,8,0.00
2013-4-25,70.1,54.4,37.1,45.9,39.7,33.8,92,62,30,30.14,30.05,2,0,7,0.00
2013-4-26,69.1,55.0,40.3,50.4,44.6,37.4,93,70,41,30.24,30.14,1,0,3,0.00
2013-4-27,56.1,51.4,48.4,48.2,43.9,38.5,94,76,53,30.22,30.15,2,0,7,0.36
2013-4-28,55.5,48.8,45.1,49.1,45.5,42.7,95,89,65,30.22,29.96,1,0,4,0.27
2013-4-29,54.1,46.3,40.7,44.9,35.3,27.1,94,68,36,30.16,29.92,4,1,9,0.21
2013-4-30,50.0,42.6,35.5,43.2,35.1,28.7,93,75,45,30.45,30.16,3,0,9,0.17
2013-5-1,62.8,47.4,30.5,41.4,34.6,28.0,94,65,35,30.58,30.46,2,0,4,0.00
2013-5-2,68.6,52.8,37.3,43.3,39.1,34.4,92,63,32,30.55,30.37,2,0,6,0.00
2013-5-3,68.3,53.9,37.1,49.2,43.0,34.2,93,69,46,30.40,30.23,3,0,5,0.00
2013-5-4,77.0,59.5,40.1,49.9,42.9,35.2,94,60,23,30.25,30.01,3,0,9,0.00
2013-5-5,81.9,63.2,43.7,54.1,46.1,40.1,92,59,26,30.01,29.78,2,0,5,0.00
2013-5-6,86.2,66.0,46.3,51.9,46.2,40.4,89,55,20,29.85,29.76,2,0,6,0.00
2013-5-7,72.5,59.3,47.2,54.3,49.8,43.5,91,72,50,29.99,29.82,1,0,5,0.00
2013-5-8,61.5,54.8,47.8,53.9,49.6,44.8,92,83,72,30.15,30.00,1,0,4,0.00
2013-5-9,71.4,56.5,44.1,56.2,49.3,41.4,94,78,56,30.22,30.12,1,0,6,0.00
2013-5-10,78.2,61.8,44.3,58.5,51.2,41.6,95,71,40,30.20,30.12,2,0,4,0.00
2013-5-11,81.0,65.5,52.4,57.1,52.6,48.9,92,67,36,30.17,29.99,2,0,4,0.00
2013-5-12,68.4,61.8,56.8,59.5,56.3,50.8,94,83,63,30.10,30.00,1,0,4,0.25
2013-5-13,59.8,55.0,47.2,58.1,52.0,43.9,94,90,79,30.20,29.93,2,0,8,0.25
2013-5-14,62.6,52.8,45.9,46.2,42.9,36.5,91,71,40,30.24,30.13,2,0,5,0.00
2013-5-15,66.1,52.2,41.7,49.6,44.2,38.7,93,77,44,30.13,30.01,2,0,7,0.11
2013-5-16,67.3,59.6,50.7,54.7,51.4,48.7,95,76,54,30.02,29.87,6,0,6,0.07
2013-5-17,56.8,54.4,51.6,53.3,51.0,49.0,94,88,77,30.05,29.94,5,0,5,0.17
2013-5-18,58.0,54.5,51.0,50.7,48.0,44.0,89,79,63,30.28,30.06,8,0,8,0.01
2013-5-19,60.4,53.8,48.7,52.9,49.3,45.0,94,85,64,30.41,30.28,5,0,5,0.06
2013-5-20,67.9,54.2,42.3,52.6,46.5,39.9,95,77,50,30.36,29.91,6,0,7,0.00
2013-5-21,51.3,48.4,45.9,49.1,46.1,43.8,94,92,79,29.91,29.79,4,0,5,0.97
2013-5-22,49.4,46.3,44.1,47.1,44.4,42.7,95,93,89,29.95,29.85,3,0,4,0.17
2013-5-23,57.1,47.4,40.8,51.4,44.2,38.7,95,89,66,30.03,29.93,7,0,7,0.05
2013-5-24,58.0,50.3,40.3,49.1,44.7,38.4,95,82,60,30.05,29.98,6,0,6,0.00
2013-5-25,61.2,54.0,48.7,50.3,47.0,43.2,93,78,53,30.05,29.99,6,0,6,0.01
2013-5-26,60.9,53.7,47.0,54.2,49.2,44.4,94,85,66,30.00,29.95,5,0,9,0.03
2013-5-27,59.1,54.5,49.6,55.5,52.0,47.7,95,91,81,29.97,29.73,6,0,6,0.31
2013-5-28,58.5,54.4,50.7,53.5,50.9,48.3,95,88,76,29.89,29.78,6,0,8,0.14
2013-5-29,55.0,51.1,49.0,51.7,48.7,46.8,95,92,84,29.97,29.68,4,0,5,0.58
2013-5-30,59.7,52.6,47.6,51.4,48.1,45.8,95,85,61,30.25,29.97,7,0,9,0.05
2013-5-31,63.1,55.3,48.2,49.9,46.6,43.1,93,74,49,30.34,30.25,6,0,6,0.00
2013-6-1,69.1,57.6,45.9,52.1,47.5,43.0,94,71,48,30.26,30.06,6,0,7,0.00
2013-6-2,65.3,57.1,51.0,51.2,49.4,46.4,93,77,52,30.10,30.05,5,0,6,0.02
2013-6-3,72.5,58.0,44.4,55.4,49.4,41.8,94,75,51,30.12,30.07,7,0,7,0.00
2013-6-4,79.1,62.3,45.3,58.1,50.4,42.6,94,68,39,30.13,30.03,5,0,7,0.00
2013-6-5,77.5,62.1,48.8,58.5,52.2,45.7,93,72,45,30.10,30.04,7,0,9,0.00
2013-6-6,79.3,63.0,48.5,58.9,50.5,40.5,94,67,32,30.06,30.02,6,0,7,0.00
2013-6-7,65.0,57.8,50.1,52.7,47.7,40.9,87,70,45,30.17,30.02,7,0,9,0.00
2013-6-8,66.1,57.3,50.3,51.9,47.5,44.7,85,70,55,30.19,30.12,6,0,9,0.00
2013-6-9,66.5,56.2,49.4,49.0,45.6,42.0,89,69,44,30.12,30.04,6,0,10,0.00
2013-6-10,66.6,56.2,43.7,49.9,45.5,40.1,91,69,45,30.05,29.89,7,0,7,0.00
2013-6-11,61.5,54.3,49.0,53.7,48.1,42.6,92,81,52,30.11,29.93,8,0,10,0.10
2013-6-12,66.6,55.2,47.0,51.9,47.5,41.5,94,77,40,30.15,30.10,10,0,10,0.03
2013-6-13,61.7,55.4,51.2,55.7,51.1,48.3,94,86,65,30.22,30.14,4,0,5,0.12
2013-6-14,63.9,56.5,50.7,52.1,48.7,46.3,91,76,55,30.24,30.07,6,0,9,0.00
2013-6-15,77.2,60.5,43.0,58.7,50.4,40.3,94,72,43,30.07,29.92,7,0,7,0.00
2013-6-16,73.7,62.0,50.3,61.4,54.1,47.2,93,77,51,30.09,29.99,6,0,8,0.03
2013-6-17,75.8,62.5,50.6,57.6,52.0,46.2,95,72,39,30.10,29.89,6,0,9,0.10
2013-6-18,70.4,60.8,54.0,56.1,51.7,44.9,95,74,43,29.99,29.88,6,0,7,0.00
2013-6-19,62.6,56.3,53.4,55.5,52.5,49.3,94,87,71,30.01,29.92,5,0,5,0.42
2013-6-20,54.7,52.9,51.6,52.7,51.4,50.1,95,95,93,30.12,29.97,5,0,5,1.86
2013-6-21,64.7,56.7,51.5,56.6,52.3,49.0,95,86,60,30.17,30.11,6,0,6,0.06
2013-6-22,79.0,62.4,48.2,57.4,51.8,46.0,95,71,35,30.14,29.87,5,0,8,0.00
2013-6-23,68.9,62.4,54.1,62.5,57.6,50.9,93,85,69,29.87,29.60,1,0,2,0.02
2013-6-24,64.5,60.1,56.2,60.0,56.6,52.8,95,89,68,29.72,29.58,6,0,6,0.78
2013-6-25,69.3,60.2,53.6,60.5,55.6,51.6,95,86,56,29.88,29.69,8,0,8,0.75
2013-6-26,68.3,61.0,54.1,62.1,57.2,52.4,95,88,67,30.10,29.86,5,0,8,0.03
2013-6-27,69.6,62.7,57.1,64.3,59.5,55.2,95,89,76,30.21,30.05,4,0,5,0.08
2013-6-28,86.4,70.9,58.5,68.6,61.7,56.2,95,75,41,30.20,30.04,5,0,5,0.00
2013-6-29,82.9,71.6,62.1,66.4,62.6,59.4,93,75,50,30.11,30.01,5,0,5,0.00
2013-6-30,90.4,73.8,58.1,71.1,63.2,55.5,94,72,34,30.03,29.87,6,0,6,0.00
2013-7-1,86.8,73.0,61.0,66.4,61.5,56.8,92,69,47,30.03,29.92,8,0,8,0.00
2013-7-2,80.3,67.2,57.1,60.9,55.4,49.9,89,68,45,30.11,30.03,7,0,7,0.00
2013-7-3,77.0,62.9,50.6,57.5,50.9,45.9,90,67,41,30.16,30.06,7,0,8,0.00
2013-7-4,69.3,60.6,51.9,54.8,51.2,47.5,90,72,57,30.12,30.04,6,0,6,0.00
2013-7-5,70.9,61.3,51.0,58.1,53.2,47.9,92,76,54,30.04,29.96,5,0,5,0.00
2013-7-6,77.2,62.3,50.6,59.2,53.7,47.8,94,75,49,29.98,29.87,5,0,6,0.00
2013-7-7,76.8,65.7,53.7,59.6,55.1,50.4,92,70,43,29.95,29.88,8,0,10,0.00
2013-7-8,76.1,63.0,52.7,60.5,55.3,49.3,93,77,52,30.10,29.95,5,0,6,0.00
2013-7-9,83.1,67.1,53.0,63.1,55.6,48.3,94,69,41,30.11,30.02,9,0,9,0.00
2013-7-10,71.4,61.1,51.0,57.7,51.9,47.2,92,73,57,30.06,29.97,8,0,8,0.00
2013-7-11,67.3,58.5,52.5,51.2,47.6,44.6,84,68,45,30.08,30.01,7,0,7,0.00
2013-7-12,66.5,55.6,45.6,53.0,48.0,42.0,92,77,56,30.12,30.02,6,0,7,0.00
2013-7-13,73.8,59.9,44.0,53.3,48.4,41.3,94,69,42,30.20,30.11,6,0,9,0.00
2013-7-14,79.5,63.0,46.3,55.8,48.2,42.9,93,63,28,30.14,30.01,8,0,8,0.00
2013-7-15,79.1,62.7,45.6,56.3,49.1,42.0,92,64,37,30.06,29.91,7,0,8,0.00
2013-7-16,85.6,68.2,50.4,62.3,54.8,47.0,92,66,33,29.92,29.80,7,0,7,0.00
2013-7-17,69.1,65.0,60.6,61.1,58.2,56.0,92,79,65,30.19,29.88,6,0,8,0.04
2013-7-18,77.5,65.2,55.9,59.7,56.0,52.2,89,73,52,30.23,30.13,8,0,9,0.00
2013-7-19,78.2,63.4,50.6,61.4,55.2,47.8,94,76,53,30.18,30.05,6,0,6,0.00
2013-7-20,73.2,61.1,53.0,61.0,55.1,50.5,93,82,60,30.09,29.97,5,0,5,0.00
2013-7-21,72.6,61.5,52.7,61.9,55.7,50.1,94,82,63,29.99,29.91,6,0,6,0.00
2013-7-22,75.6,63.6,54.9,62.2,57.0,51.8,93,80,58,30.07,29.94,5,0,7,0.00
2013-7-23,81.9,60.4,53.0,61.7,42.2,-99.9,94,66,38,30.07,29.97,7,-85,7,0.00
2013-7-24,81.9,14.0,78.4,59.3,-72.5,-99.9,51,8,42,30.06,30.00,6,-825,7,0.00
2013-7-25,81.7,16.8,77.0,60.6,-67.3,-99.9,51,9,35,30.11,30.04,5,-789,7,0.00
2013-7-26,82.1,16.1,77.5,57.7,-69.1,-99.9,48,8,29,30.16,30.08,6,-797,7,0.00
2013-7-27,75.9,14.5,71.8,56.2,-69.8,-99.9,56,10,43,30.16,30.01,6,-802,9,0.00
2013-7-28,60.3,0.8,59.8,53.6,-97.8,-99.9,80,1,77,30.02,29.96,2,-986,4,0.00
2013-7-29,72.0,23.7,58.0,56.5,-43.4,-99.9,84,26,56,30.02,29.96,6,-634,7,0.00
2013-7-30,76.6,64.2,52.1,60.3,55.1,48.9,93,74,50,30.13,30.01,7,0,7,0.00
2013-7-31,71.8,62.0,52.8,61.7,56.6,49.9,93,83,64,30.13,29.99,6,0,7,0.01
2013-8-1,62.9,60.5,57.4,59.2,56.3,54.2,92,86,78,30.08,30.03,4,0,5,0.00
2013-8-2,60.3,58.4,57.1,57.7,56.1,54.2,95,92,84,30.14,30.07,1,0,2,0.62
2013-8-3,70.6,63.3,58.0,61.6,58.3,56.6,95,85,66,30.13,30.06,4,0,5,0.00
2013-8-4,78.6,66.4,58.6,63.9,59.1,55.9,91,79,57,30.07,29.95,5,0,6,0.00
2013-8-5,82.5,67.0,54.3,62.6,57.3,51.4,94,73,46,30.02,29.94,6,0,6,0.00
2013-8-6,82.9,66.6,51.0,60.7,54.8,47.9,94,69,40,30.00,29.92,6,0,8,0.00
2013-8-7,84.3,66.9,52.1,59.3,54.1,49.2,93,67,33,30.01,29.95,7,0,7,0.00
2013-8-8,81.4,65.6,55.2,61.8,55.7,51.1,91,72,46,30.04,29.96,7,0,8,0.00
2013-8-9,81.0,66.6,51.9,63.3,56.1,48.8,92,71,49,29.97,29.84,6,0,8,0.00
2013-8-10,79.3,68.3,62.0,65.2,61.5,57.4,95,80,55,30.02,29.86,7,0,9,0.17
2013-8-11,70.1,63.5,57.8,62.0,58.6,54.5,94,84,67,30.07,30.00,3,0,4,0.11
2013-8-12,76.1,64.1,57.5,60.7,56.1,53.7,90,76,54,30.08,30.01,8,0,8,0.00
2013-8-13,79.3,66.5,56.2,60.1,55.8,52.3,91,71,45,30.10,29.94,6,0,7,0.00
2013-8-14,82.3,66.5,54.1,64.1,57.8,50.6,92,76,41,29.98,29.91,6,0,6,0.01
2013-8-15,69.9,65.5,62.3,65.3,62.9,60.1,94,91,76,30.00,29.92,3,0,5,0.18
2013-8-16,82.1,69.4,61.7,64.9,60.6,50.2,95,76,35,30.01,29.95,6,0,7,0.00
2013-8-17,73.7,66.4,60.3,62.1,58.4,55.8,90,76,58,30.08,30.01,6,0,9,0.00
2013-8-18,76.6,65.2,58.0,59.8,56.0,52.6,91,73,48,30.13,30.08,6,0,7,0.00
2013-8-19,75.8,65.2,57.5,60.5,54.7,48.5,89,70,52,30.13,30.07,10,0,10,0.00
2013-8-20,74.2,62.9,51.9,56.8,51.8,48.6,90,69,45,30.17,30.08,7,0,8,0.00
2013-8-21,78.6,63.3,47.3,58.4,52.3,44.2,92,70,44,30.10,29.95,6,0,8,0.00
2013-8-22,81.7,68.1,51.9,63.9,56.6,48.8,93,69,42,29.96,29.80,0,0,0,0.00
2013-8-23,72.5,65.1,59.7,59.1,57.0,55.4,89,76,56,29.91,29.83,6,0,8,0.00
2013-8-24,68.4,61.7,55.2,60.7,56.8,51.7,93,84,63,29.93,29.86,4,0,4,0.13
2013-8-25,72.6,61.1,49.3,59.3,54.2,46.6,94,79,54,29.96,29.88,6,0,7,0.02
2013-8-26,74.9,63.5,57.4,60.4,57.5,55.1,94,82,53,29.97,29.85,5,0,8,0.02
2013-8-27,78.4,66.7,58.6,65.6,58.7,55.3,93,77,45,29.96,29.81,6,0,7,0.00
2013-8-28,76.3,67.0,59.7,65.9,60.9,56.4,95,82,55,29.90,29.82,6,0,6,0.19
2013-8-29,69.6,64.7,62.9,66.0,62.7,61.4,95,93,81,30.02,29.87,6,0,7,1.39
2013-8-30,74.2,64.5,56.8,62.1,58.2,53.0,95,82,48,30.16,30.02,9,0,9,0.00
2013-8-31,78.4,63.8,49.1,62.4,55.4,46.8,95,76,50,30.10,29.85,5,0,5,0.00
2013-9-1,78.6,66.3,54.1,63.0,57.7,51.5,94,75,53,29.90,29.80,5,0,8,0.00
2013-9-2,80.1,65.6,55.9,62.1,57.1,53.0,93,76,48,29.95,29.87,6,0,8,0.02
2013-9-3,69.4,62.2,56.8,64.4,59.3,54.8,95,90,76,30.04,29.94,2,0,2,0.27
2013-9-4,67.4,60.8,54.3,61.8,57.6,52.6,95,89,79,30.06,30.01,4,0,5,0.01
2013-9-5,69.8,61.7,57.2,62.7,58.5,55.4,95,90,76,30.05,29.93,8,0,8,0.18
2013-9-6,67.9,62.2,58.9,64.2,60.0,57.5,95,93,79,30.12,29.95,4,0,6,1.47
2013-9-7,73.3,63.7,57.7,63.4,59.6,55.7,95,87,66,30.12,30.03,6,0,7,0.05
2013-9-8,76.8,63.7,55.2,63.2,58.2,53.5,95,83,59,30.11,30.04,5,0,5,0.00
2013-9-9,77.2,63.3,54.7,64.1,58.0,53.3,95,84,62,30.07,29.99,5,0,6,0.00
2013-9-10,77.5,63.1,55.5,65.4,58.7,53.8,95,87,62,30.01,29.90,4,0,6,0.00
2013-9-11,91.0,69.8,53.4,67.0,59.9,51.7,95,75,34,29.95,29.88,2,0,2,0.00
2013-9-12,80.4,65.7,55.0,64.2,59.1,53.2,95,81,55,30.00,29.91,5,0,5,0.00
2013-9-13,64.4,60.4,55.5,60.7,57.9,53.5,95,92,85,29.98,29.89,0,0,0,0.00
2013-9-14,66.0,62.9,60.7,61.0,59.7,57.7,94,89,82,29.89,29.75,2,0,2,0.00
2013-9-15,65.7,61.8,59.5,61.3,59.6,57.8,95,92,82,29.82,29.71,2,0,2,0.29
2013-9-16,62.0,59.3,55.9,60.3,57.8,54.5,95,95,93,29.95,29.82,3,0,5,0.51
2013-9-17,58.1,55.9,54.1,56.1,53.9,52.6,95,93,83,29.95,29.87,3,0,4,0.02
2013-9-18,63.7,55.8,49.4,55.5,51.6,47.2,95,87,58,30.09,29.95,2,0,5,0.03
2013-9-19,77.9,58.0,42.4,55.8,47.4,40.8,95,72,29,30.06,29.77,8,0,8,0.00
2013-9-20,74.7,59.2,45.4,56.5,49.9,43.5,95,75,40,29.77,29.59,7,0,8,0.12
2013-9-21,66.8,59.2,55.6,57.0,54.2,50.4,95,85,56,29.72,29.65,5,0,5,0.03
2013-9-22,58.0,55.8,53.4,55.1,52.5,47.9,94,89,73,29.73,29.59,6,0,8,0.30
2013-9-23,57.8,54.0,49.1,54.9,51.2,47.7,95,90,83,29.98,29.74,7,0,7,0.86
2013-9-24,56.1,50.9,47.0,53.2,48.9,45.6,95,93,76,29.98,29.85,4,0,6,0.64
2013-9-25,55.9,50.5,44.0,51.7,48.2,42.4,95,92,80,30.04,29.86,2,0,4,0.00
2013-9-26,59.7,48.8,41.0,51.1,45.2,39.5,95,88,66,30.14,30.04,3,0,4,0.00
2013-9-27,52.7,49.8,42.0,51.3,48.4,40.4,95,95,93,30.14,29.86,2,0,2,0.21
2013-9-28,58.1,53.6,50.1,56.7,52.1,48.7,96,95,94,29.85,29.35,8,0,8,1.00
2013-9-29,52.1,50.8,49.3,50.7,48.8,46.9,96,93,84,29.57,29.18,7,0,8,0.60
2013-9-30,54.9,50.5,47.6,52.1,46.9,44.4,93,88,79,29.92,29.41,7,0,8,0.01
2013-10-1,54.6,49.1,46.5,47.5,45.1,42.3,94,86,69,30.12,29.92,6,0,7,0.12
2013-10-2,50.9,48.9,47.5,48.7,47.2,45.9,95,94,91,30.18,30.07,1,0,2,0.25
2013-10-3,55.2,49.7,46.2,48.7,46.6,44.8,95,89,70,30.45,30.18,3,0,3,0.00
2013-10-4,63.6,49.8,37.4,51.4,43.8,35.8,95,82,48,30.49,30.36,2,0,4,0.00
2013-10-5,68.6,52.3,40.8,53.8,45.4,39.2,95,80,40,30.37,30.15,0,0,0,0.00
2013-10-6,74.4,55.6,41.8,53.3,44.4,31.3,95,72,21,30.15,29.89,8,0,8,0.00
2013-10-7,55.5,51.1,48.7,50.9,49.2,47.3,95,94,78,30.02,29.89,5,0,7,1.27
2013-10-8,54.1,48.5,40.7,49.5,46.0,39.1,96,91,67,30.09,29.96,4,0,4,0.45
2013-10-9,55.5,44.2,33.2,46.7,40.3,31.7,95,87,63,30.15,29.97,3,0,4,0.00
2013-10-10,56.7,48.7,43.1,49.0,45.0,41.5,95,88,69,30.07,29.94,2,0,2,0.00
2013-10-11,55.9,48.8,42.4,49.1,45.6,40.8,95,89,73,30.15,30.07,5,0,5,0.00
2013-10-12,55.9,48.6,42.8,48.7,45.2,40.6,95,89,72,30.22,30.07,6,0,6,0.03
2013-10-13,53.6,45.3,38.7,47.1,42.2,36.9,95,89,74,30.38,30.22,4,0,5,0.00
2013-10-14,57.0,43.6,33.3,47.8,40.0,31.8,95,88,67,30.43,30.37,2,0,4,0.00
2013-10-15,61.2,46.2,35.4,50.2,42.0,33.8,95,86,56,30.40,30.18,2,0,2,0.00
2013-10-16,50.4,46.1,39.1,47.0,44.0,37.2,95,92,87,30.21,30.16,1,0,1,0.00
2013-10-17,56.5,47.5,40.6,49.4,44.6,38.7,95,90,73,30.28,30.21,2,0,4,0.00
2013-10-18,59.8,41.8,35.1,50.4,30.0,-99.9,95,80,66,30.26,30.16,4,-84,4,0.00
2013-10-19,49.3,40.2,45.3,45.9,24.6,-99.9,95,80,88,30.21,30.15,1,-138,1,0.01
2013-10-20,47.5,44.8,42.0,46.1,43.4,40.7,95,95,94,30.21,30.16,1,0,1,0.00
2013-10-21,48.8,45.1,41.1,47.7,43.9,39.8,96,95,95,30.18,30.11,1,0,1,0.02
2013-10-22,51.0,46.1,40.7,49.9,45.0,39.6,96,96,95,30.13,30.04,2,0,2,0.00
2013-10-23,62.6,46.3,34.6,54.3,44.0,33.3,97,92,72,30.06,29.98,2,0,2,0.00
2013-10-24,57.8,45.0,35.2,50.5,42.5,33.6,96,91,74,30.13,30.02,2,0,2,0.01
2013-10-25,49.4,46.9,45.3,47.3,45.2,44.0,96,94,89,30.32,30.13,0,0,1,0.01
2013-10-26,50.1,47.3,45.4,45.8,44.5,43.2,93,90,81,30.34,30.20,2,0,2,0.00
2013-10-27,54.3,46.8,38.8,49.5,44.6,37.2,96,92,79,30.20,29.90,5,0,8,0.24
2013-10-28,58.6,44.2,35.2,45.4,37.1,30.9,96,79,37,29.97,29.87,5,0,8,0.00
2013-10-29,55.8,39.5,30.3,41.8,34.6,28.8,95,84,50,30.05,29.96,2,0,2,0.00
2013-10-30,54.7,43.5,31.8,45.9,38.6,30.0,95,84,59,30.15,30.04,5,0,5,0.03
2013-10-31,50.9,48.4,46.2,49.5,46.9,43.7,96,94,90,30.27,30.10,1,0,1,0.21
2013-11-1,56.7,51.4,47.8,55.1,50.1,46.5,96,95,94,30.28,29.84,0,0,0,0.00
2013-11-2,50.3,46.9,41.6,49.5,45.9,40.8,97,96,95,29.89,29.48,10,0,11,0.00
2013-11-3,46.2,39.5,32.1,45.4,38.7,31.3,97,97,96,30.12,29.89,4,0,4,0.00
2013-11-4,43.1,36.4,29.9,42.3,35.6,29.2,97,97,97,30.21,30.08,2,0,2,0.00
2013-11-5,48.7,44.5,40.0,47.9,43.7,39.2,97,97,97,30.26,30.03,1,0,1,0.00
2013-11-6,49.4,44.2,38.0,48.6,43.4,37.2,97,97,97,30.33,30.03,0,0,0,0.06
2013-11-7,48.5,46.7,45.4,47.7,45.9,44.6,97,97,97,30.03,29.71,5,0,6,1.35
2013-11-8,50.1,45.6,42.1,48.9,44.3,40.8,97,95,83,30.17,29.98,3,0,3,0.34
2013-11-9,50.4,43.2,34.8,46.2,41.2,33.5,96,93,78,30.17,30.08,0,0,0,0.06
2013-11-10,47.6,45.2,43.1,46.8,44.3,42.0,97,97,96,30.16,30.10,0,0,0,0.18
2013-11-11,52.8,44.3,37.0,52.0,43.3,36.0,97,96,95,30.17,30.01,0,0,0,0.00
2013-11-12,54.9,49.5,41.4,53.9,48.2,40.5,97,95,91,30.36,30.03,4,0,4,0.13
2013-11-13,53.8,50.6,47.6,49.9,47.8,45.4,95,90,77,30.43,30.32,3,0,3,0.01
2013-11-14,47.9,45.3,41.0,46.7,44.1,39.7,96,96,93,30.32,30.06,0,0,1,0.24
2013-11-15,44.4,42.8,41.6,43.6,41.9,40.5,97,97,96,30.07,29.35,8,0,8,1.39
2013-11-16,43.8,39.6,35.2,43.0,38.7,34.2,97,96,95,29.78,29.36,1,0,9,1.07
2013-11-17,47.6,43.5,34.8,45.3,41.8,33.8,97,94,89,29.90,29.78,5,0,6,0.01
2013-11-18,49.4,48.1,46.6,48.6,46.3,43.2,97,94,88,29.90,29.56,4,0,4,0.49
2013-11-19,50.7,41.1,33.3,49.9,38.6,26.5,97,91,70,30.07,29.53,4,0,4,0.72
2013-11-20,39.1,31.1,26.6,31.6,27.4,24.6,95,86,62,30.52,30.07,1,0,2,61.42
2013-11-21,38.7,28.7,23.0,30.9,25.2,20.8,95,87,64,30.69,30.52,0,0,0,0.00
2013-11-22,42.3,30.0,23.0,30.9,25.7,20.8,95,85,55,30.67,30.48,0,0,1,89.84
2013-11-23,45.1,32.6,25.6,36.3,29.4,23.6,95,89,66,30.48,30.22,0,0,0,260.84
2013-11-24,46.6,34.3,28.1,37.9,31.4,26.6,96,90,66,30.27,30.18,0,0,0,151.01
2013-11-25,52.1,37.5,30.2,42.0,34.3,28.9,96,89,66,30.33,30.26,0,0,0,214.90
2013-11-26,52.5,39.0,29.6,41.4,34.6,28.1,96,85,43,30.28,30.11,0,0,0,0.30
2013-11-27,53.3,42.0,33.4,44.9,38.9,31.9,95,89,70,30.11,29.96,0,0,0,3.13
2013-11-28,52.4,38.3,31.5,41.9,34.9,30.2,96,88,60,30.19,30.04,0,0,0,0.28
2013-11-29,46.9,42.5,36.7,43.5,40.5,35.4,96,93,82,30.32,30.18,0,0,0,0.00
2013-11-30,44.7,12.1,43.6,43.6,-60.8,-99.9,96,26,94,30.33,30.08,0,-726,0,0.00
2013-12-1,49.0,4.8,38.3,48.2,-83.4,-99.9,97,11,96,30.08,29.74,5,-881,5,0.72
2013-12-2,38.3,35.9,34.2,37.3,34.9,33.2,96,96,96,30.05,29.82,4,0,4,40.12
2013-12-3,34.8,33.0,31.8,33.8,32.0,30.8,96,96,96,30.32,30.05,0,0,1,1.81
2013-12-4,32.0,28.5,24.4,31.0,26.3,21.9,96,91,85,30.36,30.30,0,0,0,6.92
2013-12-5,29.8,25.6,22.3,27.8,22.9,19.0,94,89,79,30.34,30.22,0,0,1,66.33
2013-12-6,27.2,21.0,14.8,20.2,15.3,10.8,92,79,55,30.27,30.17,1,0,2,13.71
2013-12-7,23.8,16.1,11.2,14.2,10.4,7.0,89,79,54,30.44,30.27,0,0,0,106.67
2013-12-8,27.2,20.2,12.6,19.3,15.2,8.7,90,81,61,30.59,30.44,0,0,0,6.73
2013-12-9,32.0,25.7,16.2,29.7,23.1,12.2,92,90,84,30.60,30.50,0,0,0,10.40
2013-12-10,34.9,32.3,30.2,33.6,30.7,28.2,95,94,92,30.50,30.42,0,0,0,13.40
2013-12-11,38.3,32.4,28.4,33.6,30.0,25.8,95,91,80,30.42,30.17,0,0,0,4.64
2013-12-12,39.7,35.5,30.9,38.7,33.8,29.1,96,93,82,30.17,30.05,0,0,2,1.51
2013-12-13,45.1,41.9,39.1,44.3,41.1,38.1,97,97,96,30.42,30.14,0,0,0,0.00
2013-12-14,45.7,43.4,39.7,44.9,42.6,38.9,97,97,97,30.43,30.33,0,0,1,0.00
2013-12-15,48.7,46.3,43.3,47.9,45.5,42.5,97,97,97,30.45,30.33,0,0,0,0.00
2013-12-16,44.0,38.6,32.6,43.2,37.4,31.1,97,96,93,30.50,30.28,0,0,0,0.00
2013-12-17,39.8,35.4,32.1,39.0,34.4,30.8,97,96,95,30.28,30.13,0,0,1,3.32
2013-12-18,41.1,37.3,29.6,40.3,36.1,27.6,97,95,89,30.16,30.03,0,0,5,0.23
2013-12-19,33.4,30.0,25.3,32.1,28.1,22.4,95,93,88,30.35,30.15,0,0,0,36.31
2013-12-20,33.7,32.5,30.0,32.7,31.2,28.0,96,95,92,30.21,29.73,0,0,0,10.96
2013-12-21,38.7,35.6,33.3,37.9,34.7,32.4,97,97,96,30.18,29.85,0,0,0,0.00
2013-12-22,46.7,41.5,37.1,45.9,40.7,36.3,97,97,97,30.30,30.17,0,0,1,0.00
2013-12-23,48.4,44.9,40.1,47.6,44.1,39.3,97,97,97,30.52,30.12,2,0,2,0.00
2013-12-24,43.7,38.7,32.0,42.9,37.9,31.2,97,97,97,30.62,30.52,0,0,1,0.26
2013-12-25,39.8,34.2,30.3,39.0,33.3,29.3,97,97,96,30.55,30.40,0,0,0,0.09
2013-12-26,61.4,31.6,32.7,39.9,15.0,-99.9,97,77,45,30.41,30.22,1,-143,1,0.00
2013-12-27,43.1,38.3,32.5,42.0,37.0,30.5,96,95,92,30.37,30.11,1,0,2,0.22
2013-12-28,45.4,41.7,39.5,44.3,40.6,38.5,96,96,94,30.52,30.36,0,0,0,0.00
2013-12-29,41.7,38.7,35.7,40.7,37.7,34.5,97,96,95,30.49,30.32,1,0,1,0.03
2013-12-30,43.4,39.4,34.5,42.6,38.5,33.5,97,97,95,30.32,30.13,2,0,2,0.06
2013-12-31,46.0,43.3,40.7,45.2,42.5,39.6,97,97,95,30.38,30.20,1,0,1,0.06
2014-1-1,44.2,38.5,32.8,43.3,37.6,31.8,97,96,94,30.42,30.25,1,0,1,0.00
2014-1-2,45.7,43.1,39.6,44.9,42.3,38.8,97,97,95,30.25,29.90,7,0,7,1.11